Year,Month,Day,Hour,Minute,Value (Times are PST for windspeed in km/hr)
2019,01,07,01,28,0.00
2019,01,07,01,29,0.00
2019,01,07,01,30,0.00
2019,01,07,01,31,0.00
2019,01,07,01,32,0.00
2019,01,07,01,33,0.00
2019,01,07,01,34,0.00
2019,01,07,01,35,0.00
2019,01,07,01,36,0.00
2019,01,07,01,37,0.00
2019,01,07,01,38,0.00
2019,01,07,01,39,0.00
2019,01,07,01,40,0.00
2019,01,07,01,41,0.00
2019,01,07,01,42,0.00
2019,01,07,01,43,0.00
2019,01,07,02,00,1.00
2019,01,07,02,01,0.00
2019,01,07,02,02,0.00
2019,01,07,02,03,0.00
2019,01,07,02,04,0.00
2019,01,07,02,05,0.00
2019,01,07,02,06,0.00
2019,01,07,02,07,0.00
2019,01,07,02,08,0.00
2019,01,07,02,09,0.00
2019,01,07,02,10,0.00
2019,01,07,02,11,0.00
2019,01,07,03,02,0.00
2019,01,07,03,03,0.00
2019,01,07,03,04,0.00
2019,01,07,03,05,0.00
2019,01,07,03,06,0.00
2019,01,07,03,07,0.00
2019,01,07,03,08,0.00
2019,01,07,03,09,0.00
2019,01,07,03,10,0.00
2019,01,07,03,11,0.00
2019,01,07,03,12,0.00
2019,01,07,03,13,0.00
2019,01,07,03,46,0.50
2019,01,07,03,47,0.00
2019,01,07,03,48,0.00
2019,01,07,03,49,0.00
2019,01,07,03,50,0.00
2019,01,07,03,51,0.00
2019,01,07,03,52,0.00
2019,01,07,03,53,0.00
2019,01,07,03,54,0.00
2019,01,07,03,55,0.00
2019,01,07,03,56,0.00
2019,01,07,06,12,0.70
2019,01,07,06,13,1.60
2019,01,07,06,14,1.20
2019,01,07,06,15,0.60
2019,01,07,06,16,0.70
2019,01,07,06,17,0.00
2019,01,07,06,18,0.00
2019,01,07,06,19,0.00
2019,01,07,06,20,0.30
2019,01,07,06,21,1.60
2019,01,07,06,22,1.60
2019,01,07,06,23,1.60
2019,01,07,06,24,0.20
2019,01,07,06,25,0.00
2019,01,07,06,26,0.00
2019,01,07,06,27,0.00
2019,01,07,06,28,0.00
2019,01,07,06,29,0.00
2019,01,07,06,30,0.00
2019,01,07,06,31,0.00
2019,01,07,06,32,0.00
2019,01,07,06,33,0.00
2019,01,07,06,34,0.00
2019,01,07,06,35,0.00
2019,01,07,06,36,0.00
2019,01,07,06,37,0.00
2019,01,07,06,38,0.00
2019,01,07,07,12,0.10
2019,01,07,07,13,0.00
2019,01,07,07,14,0.00
2019,01,07,07,15,0.00
2019,01,07,07,16,0.00
2019,01,07,07,17,0.00
2019,01,07,07,18,0.00
2019,01,07,07,19,0.00
2019,01,07,07,20,0.00
2019,01,07,07,21,0.00
2019,01,07,07,22,0.00
2019,01,07,07,38,0.00
2019,01,07,07,39,0.00
2019,01,07,07,40,0.00
2019,01,07,07,41,0.00
2019,01,07,07,42,0.00
2019,01,07,07,43,0.00
2019,01,07,07,44,0.00
2019,01,07,07,45,0.00
2019,01,07,07,46,0.00
2019,01,07,07,47,0.00
2019,01,07,07,48,0.00
2019,01,07,07,49,0.00
2019,01,07,15,27,0.00
2019,01,07,15,28,0.00
2019,01,07,15,29,0.10
2019,01,07,15,30,0.00
2019,01,07,15,31,0.00
2019,01,07,15,32,0.10
2019,01,07,15,33,0.00
2019,01,07,15,34,0.10
2019,01,07,15,35,0.00
2019,01,07,15,36,0.00
2019,01,07,15,37,0.00
2019,01,07,15,38,0.00
2019,01,07,15,39,0.10
2019,01,07,15,40,0.10
2019,01,07,15,41,0.00
2019,01,07,15,42,0.00
2019,01,07,15,43,0.20
2019,01,07,15,44,0.30
2019,01,07,15,45,0.50
2019,01,07,15,46,0.50
2019,01,07,15,47,0.50
2019,01,07,15,48,0.60
2019,01,07,15,49,0.60
2019,01,07,15,50,0.10
2019,01,07,15,51,0.90
2019,01,07,15,52,0.80
2019,01,07,15,53,0.30
2019,01,07,15,54,0.00
2019,01,07,15,55,0.00
2019,01,07,15,56,0.10
2019,01,07,15,57,0.00
2019,01,07,15,58,0.00
2019,01,07,15,59,0.10
2019,01,07,16,00,0.00
2019,01,07,16,01,0.10
2019,01,07,16,02,0.20
2019,01,07,16,03,0.00
2019,01,07,16,04,0.00
2019,01,07,16,05,0.10
2019,01,07,16,06,0.00
2019,01,07,16,07,0.00
2019,01,07,16,08,0.00
2019,01,07,16,09,0.00
2019,01,07,16,10,0.00
2019,01,07,16,11,0.00
2019,01,07,16,12,0.40
2019,01,07,16,13,0.00
2019,01,07,16,14,0.00
2019,01,07,16,15,0.00
2019,01,07,16,16,0.00
2019,01,07,16,17,0.00
2019,01,07,16,18,0.00
2019,01,07,16,19,0.00
2019,01,07,16,20,0.10
2019,01,07,16,21,0.10
2019,01,07,16,22,0.00
2019,01,07,16,23,0.10
2019,01,07,16,24,0.20
2019,01,07,16,25,0.10
2019,01,07,16,26,0.10
2019,01,07,16,27,0.10
2019,01,07,16,28,0.00
2019,01,07,16,29,0.00
2019,01,07,16,30,0.00
2019,01,07,16,31,0.00
2019,01,07,16,32,0.00
2019,01,07,16,33,0.00
2019,01,07,16,34,0.00
2019,01,07,16,35,0.00
2019,01,07,16,36,0.00
2019,01,07,16,37,0.00
2019,01,07,16,38,0.00
2019,01,07,16,39,0.00
2019,01,07,16,40,0.00
2019,01,07,16,41,0.00
2019,01,07,16,42,0.00
2019,01,07,16,43,0.00
2019,01,07,16,44,0.00
2019,01,07,16,45,0.00
2019,01,07,16,46,0.00
2019,01,07,16,47,0.00
2019,01,07,16,48,0.00
2019,01,07,16,49,0.00
